Content
SEND FEEDBACK

Daily
Averages
Monthly
Summary
United States of America

BEDFORD PARK, ILLINOIS


Home > North America > United States > Illinois
Elevation: 623 feet     Latitude: 41 46N     Longitude: 087 45W

WEATHER
 
SELECT A DAY
Number of Records: 189,321;   Date Range: 1/1/95 - 7/26/14
 
SHARE

PRINT THIS DATA

[ ← Previous Day ]
WEATHER ALMANAC - DECEMBER 7, 2013
[ Next Day → ]
[ °C ]   °F
Weather ElementAverageHighLow
Temperature15.1 °F19.9 °F (1:51 pm)9 °F (6:51 am)
Dewpoint2 °F6.1 °F (10:51 pm)-0.9 °F (12:51 pm)
Humidity57.2 %73 % (6:51 am)42 % (12:51 pm)
Barometer30.68 in30.75 in (9:51 am)30.62 in (1:51 am)
Wind Speed5.8 mph9.2 mph (1:51 am)
Weather ElementAverage
Visibility10 mi
Wind DirectionWNW (275.7 °)

Weather ElementTotal
Precipitation---
Heating Degree Days50.6 (Base 65)
Averaged from 23 records on December 7, 2013
WEATHER CONDITIONS BREAKOUT
WIND DIRECTION BREAKOUT
WEATHER BY HOUR - DECEMBER 7, 2013
[ °C ]   °F
Local TimeTemperatureDewpointHumidityBarometerVisibilityWind DirectionWind SpeedGust SpeedPrecipitationEventsConditions
1:51 AM12.0 °F1.9 °F64 %30.62 in10.0 miNW (310°)9.2 mphClear
2:51 AM10.9 °F1.9 °F67 %30.63 in10.0 miNW (310°)6.9 mphClear
3:51 AM10.9 °F1.9 °F67 %30.63 in10.0 miNW (310°)6.9 mphClear
4:51 AM10.0 °F1.9 °F70 %30.66 in10.0 miNW (310°)6.9 mphClear
5:51 AM10.0 °F1.9 °F70 %30.67 in10.0 miNW (310°)8.1 mphClear
6:51 AM9.0 °F1.9 °F73 %30.70 in10.0 miNW (310°)6.9 mphPartly Cloudy
7:51 AM10.0 °F1.9 °F70 %30.72 in10.0 miWNW (290°)5.8 mphPartly Cloudy
8:51 AM10.9 °F1.9 °F67 %30.73 in10.0 miNW (310°)8.1 mphPartly Cloudy
9:51 AM12.9 °F1.9 °F62 %30.75 in10.0 miNNW (330°)6.9 mphPartly Cloudy
10:51 AM15.1 °F0.0 °F51 %30.74 in10.0 miNW (320°)5.8 mphPartly Cloudy
11:51 AM18.0 °F0.0 °F45 %30.72 in10.0 miNNW (340°)5.8 mphPartly Cloudy
12:51 PM19.0 °F-0.9 °F42 %30.71 in10.0 miVariable6.9 mphScattered Clouds
1:51 PM19.9 °F0.0 °F42 %30.69 in10.0 miWNW (300°)3.5 mphScattered Clouds
2:51 PM19.9 °F0.0 °F42 %30.68 in10.0 miWNW (290°)5.8 mphScattered Clouds
3:51 PM19.9 °F0.0 °F42 %30.68 in10.0 miWNW (300°)6.9 mphMostly Cloudy
4:51 PM18.0 °F1.0 °F48 %30.68 in10.0 miNW (320°)6.9 mphPartly Cloudy
5:51 PM18.0 °F1.9 °F50 %30.68 in10.0 miNNW (330°)5.8 mphClear
6:51 PM17.1 °F3.0 °F54 %30.68 in10.0 miCalmClear
7:51 PM18.0 °F3.9 °F54 %30.66 in10.0 miNNW (340°)3.5 mphPartly Cloudy
8:51 PM17.1 °F3.9 °F56 %30.65 in10.0 miNorth (360°)4.6 mphPartly Cloudy
9:51 PM17.1 °F5.0 °F59 %30.63 in10.0 miNorth (360°)4.6 mphMostly Cloudy
10:51 PM17.1 °F6.1 °F62 %30.62 in10.0 miCalmMostly Cloudy
11:51 PM17.1 °F5.0 °F59 %30.64 in10.0 miWNW (290°)6.9 mphOvercast
Hourly data recorded from KMDW, located miles away from Bedford Park, Illinois







STORIES FROM OUR PARTNERS